OYFFF EKBI-EKCH

Flight info

Callsign OYFFF
Flight time N/A
Altitude 21000
Route ABINO T56 TESPI
Aircraft TBM9/L-SDFGRWY/S

Departure

Time 2026-04-27 18:54
Airport Billund Airport (EKBI)

Arrival

Time N/A
Airport Copenhagen Kastrup Airport (EKCH)
Time Latitude Longitude Altitude Speed Heading
2026-04-27 18:33 55.73815 9.13994 223 ft 0 kts 46°
2026-04-27 18:49 55.73840 9.13977 222 ft 16 kts 300°
2026-04-27 18:49 55.73828 9.13805 221 ft 11 kts 266°
2026-04-27 18:49 55.73827 9.13659 220 ft 12 kts 262°
2026-04-27 18:49 55.73825 9.13616 220 ft 4 kts 267°
2026-04-27 18:50 55.73876 9.13581 220 ft 12 kts 11°
2026-04-27 18:50 55.73881 9.13583 220 ft 0 kts 11°
2026-04-27 18:52 55.73882 9.13583 220 ft 1 kts 11°
2026-04-27 18:53 55.73991 9.13727 220 ft 0 kts 87°
2026-04-27 18:53 55.73999 9.13984 220 ft 54 kts 85°
2026-04-27 18:53 55.74036 9.14992 324 ft 100 kts 85°
2026-04-27 18:53 55.74079 9.16238 794 ft 104 kts 84°
2026-04-27 18:54 55.74207 9.17537 1266 ft 110 kts 66°
2026-04-27 18:54 55.74571 9.18762 1792 ft 113 kts 64°
2026-04-27 18:54 55.74921 9.20040 2362 ft 117 kts 63°
2026-04-27 18:54 55.75289 9.21348 2944 ft 119 kts 63°
2026-04-27 18:55 55.75656 9.22650 3543 ft 120 kts 63°
2026-04-27 18:55 55.76026 9.23982 4153 ft 120 kts 66°
2026-04-27 18:55 55.76195 9.25435 4750 ft 121 kts 81°
2026-04-27 18:55 55.76347 9.26901 5352 ft 121 kts 79°
2026-04-27 18:56 55.76504 9.28366 5946 ft 121 kts 78°
2026-04-27 18:56 55.76666 9.29826 6531 ft 121 kts 79°
2026-04-27 18:56 55.76828 9.31290 7109 ft 120 kts 78°
2026-04-27 18:56 55.76992 9.32748 7682 ft 120 kts 79°
2026-04-27 18:57 55.77154 9.34201 8244 ft 120 kts 78°
2026-04-27 18:57 55.77316 9.35657 8797 ft 120 kts 78°
2026-04-27 18:57 55.77478 9.37107 9343 ft 120 kts 78°
2026-04-27 18:57 55.77640 9.38553 9876 ft 119 kts 78°
2026-04-27 18:58 55.77798 9.39978 10394 ft 119 kts 79°
2026-04-27 18:58 55.77958 9.41419 10907 ft 119 kts 79°
2026-04-27 18:58 55.78118 9.42860 11416 ft 119 kts 78°
2026-04-27 18:58 55.78275 9.44281 11904 ft 119 kts 78°
2026-04-27 18:59 55.78396 9.45383 12005 ft 145 kts 79°
2026-04-27 18:59 55.78552 9.46812 12028 ft 176 kts 79°
2026-04-27 18:59 55.79159 9.52313 12021 ft 242 kts 79°
2026-04-27 19:00 55.79498 9.55366 12015 ft 260 kts 79°
2026-04-27 19:00 55.79854 9.58596 12010 ft 271 kts 79°
2026-04-27 19:00 55.80220 9.61929 12010 ft 278 kts 79°
2026-04-27 19:00 55.80589 9.65315 12008 ft 276 kts 79°
2026-04-27 19:01 55.80947 9.68598 12007 ft 266 kts 79°
2026-04-27 19:01 55.81289 9.71755 12004 ft 261 kts 79°
2026-04-27 19:01 55.81631 9.74902 12000 ft 258 kts 79°
2026-04-27 19:01 55.81969 9.78024 11998 ft 256 kts 79°
2026-04-27 19:02 55.82305 9.81133 11992 ft 255 kts 79°
2026-04-27 19:02 55.82637 9.84228 11993 ft 254 kts 79°
2026-04-27 19:02 55.82974 9.87359 11996 ft 264 kts 79°
2026-04-27 19:02 55.83323 9.90624 12002 ft 273 kts 79°
2026-04-27 19:03 55.83682 9.93977 12008 ft 279 kts 79°
2026-04-27 19:03 55.84044 9.97390 12010 ft 283 kts 79°
2026-04-27 19:03 55.84409 10.00814 12010 ft 285 kts 79°
2026-04-27 19:03 55.84652 10.03110 12009 ft 286 kts 79°
2026-04-27 19:04 55.85138 10.07724 12009 ft 287 kts 79°
2026-04-27 19:04 55.85507 10.11218 12010 ft 287 kts 79°
2026-04-27 19:04 55.85873 10.14716 12009 ft 288 kts 79°
2026-04-27 19:04 55.86241 10.18221 12009 ft 288 kts 79°
2026-04-27 19:05 55.86606 10.21729 12009 ft 288 kts 79°
2026-04-27 19:05 55.86971 10.25234 12009 ft 288 kts 79°
2026-04-27 19:05 55.87335 10.28743 12009 ft 288 kts 79°
2026-04-27 19:05 55.87699 10.32254 12010 ft 288 kts 79°
2026-04-27 19:06 55.88060 10.35760 12010 ft 288 kts 79°
2026-04-27 19:06 55.88421 10.39270 12010 ft 288 kts 79°
2026-04-27 19:06 55.88776 10.42736 12010 ft 288 kts 79°
2026-04-27 19:06 55.89135 10.46249 12010 ft 288 kts 79°
2026-04-27 19:07 55.89494 10.49763 12010 ft 288 kts 79°
2026-04-27 19:07 55.89704 10.53306 12006 ft 288 kts 92°
2026-04-27 19:07 55.89389 10.56821 12006 ft 288 kts 103°
2026-04-27 19:07 55.88959 10.60302 12007 ft 288 kts 102°
2026-04-27 19:08 55.88547 10.63792 12007 ft 288 kts 102°
2026-04-27 19:08 55.88126 10.67279 12008 ft 288 kts 102°
2026-04-27 19:08 55.87697 10.70769 12008 ft 288 kts 102°
2026-04-27 19:08 55.87278 10.74209 12008 ft 288 kts 102°
2026-04-27 19:09 55.86852 10.77694 12008 ft 288 kts 102°
2026-04-27 19:09 55.86425 10.81182 12008 ft 288 kts 102°
2026-04-27 19:09 55.85997 10.84667 12008 ft 288 kts 102°
2026-04-27 19:09 55.85567 10.88152 12008 ft 288 kts 102°
2026-04-27 19:10 55.85138 10.91637 12008 ft 288 kts 102°
2026-04-27 19:10 55.84822 10.95145 12004 ft 288 kts 90°
2026-04-27 19:10 55.85284 10.98576 11997 ft 288 kts 63°
2026-04-27 19:10 55.86065 11.00473 11994 ft 288 kts 44°
2026-04-27 19:11 55.88384 11.02585 11994 ft 286 kts
2026-04-27 19:11 55.90356 11.02378 11992 ft 285 kts 343°
2026-04-27 19:11 55.92071 11.00671 11995 ft 285 kts 317°
2026-04-27 19:11 55.93195 10.97811 11996 ft 284 kts 292°
2026-04-27 19:12 55.93690 10.94412 12002 ft 283 kts 282°
2026-04-27 19:12 55.94090 10.90970 12005 ft 283 kts 282°
2026-04-27 19:12 55.94503 10.87527 12008 ft 284 kts 282°
2026-04-27 19:12 55.94927 10.84088 12009 ft 284 kts 282°
2026-04-27 19:13 55.95348 10.80642 12009 ft 284 kts 282°
2026-04-27 19:13 55.95762 10.77253 12009 ft 284 kts 282°
2026-04-27 19:13 55.96082 10.73779 12006 ft 284 kts 271°
2026-04-27 19:13 55.95645 10.70382 12001 ft 284 kts 243°
2026-04-27 19:14 55.94373 10.67720 11998 ft 285 kts 217°
2026-04-27 19:14 55.92568 10.66311 11997 ft 286 kts 191°
2026-04-27 19:14 55.90598 10.66457 11997 ft 287 kts 165°
2026-04-27 19:14 55.88859 10.68141 11998 ft 287 kts 139°
2026-04-27 19:15 55.87715 10.71029 11998 ft 288 kts 112°
2026-04-27 19:15 55.87212 10.74464 12003 ft 287 kts 102°
2026-04-27 19:15 55.86848 10.77963 12007 ft 287 kts 98°
2026-04-27 19:15 55.86551 10.81475 12009 ft 287 kts 98°
2026-04-27 19:16 55.86249 10.84994 12009 ft 288 kts 98°
2026-04-27 19:16 55.86048 10.87326 12010 ft 288 kts 98°
2026-04-27 19:16 55.85645 10.91992 12009 ft 288 kts 98°
2026-04-27 19:16 55.85340 10.95520 12009 ft 288 kts 99°
2026-04-27 19:17 55.85035 10.99041 12009 ft 288 kts 99°
2026-04-27 19:17 55.84737 11.02567 12009 ft 288 kts 98°
2026-04-27 19:17 55.84474 11.06099 12013 ft 288 kts 95°
2026-04-27 19:17 55.84747 11.09572 12008 ft 286 kts 62°
2026-04-27 19:18 55.86060 11.12206 12006 ft 284 kts 49°
2026-04-27 19:18 55.87622 11.14303 12047 ft 283 kts 21°
2026-04-27 19:18 55.89567 11.14593 11984 ft 284 kts 347°
2026-04-27 19:18 55.91279 11.12985 11902 ft 285 kts 315°
2026-04-27 19:19 55.92369 11.10067 11737 ft 290 kts 293°
2026-04-27 19:19 55.92848 11.06551 11524 ft 291 kts 279°
2026-04-27 19:19 55.93414 11.03142 11622 ft 285 kts 292°
2026-04-27 19:19 55.94276 10.99970 11640 ft 284 kts 297°
2026-04-27 19:20 55.95230 10.96893 11639 ft 284 kts 299°
2026-04-27 19:20 55.96032 10.93701 11638 ft 283 kts 283°
2026-04-27 19:20 55.95994 10.90226 11640 ft 283 kts 255°
2026-04-27 19:20 55.95076 10.87201 11640 ft 283 kts 228°
2026-04-27 19:21 55.93486 10.85155 11642 ft 283 kts 210°
2026-04-27 19:21 55.92038 10.82835 11640 ft 282 kts 236°
2026-04-27 19:21 55.91388 10.79570 11640 ft 282 kts 264°
2026-04-27 19:21 55.91668 10.76137 11641 ft 283 kts 291°
2026-04-27 19:22 55.92793 10.73292 11642 ft 283 kts 315°
2026-04-27 19:22 55.93925 10.70468 11639 ft 282 kts 292°
2026-04-27 19:22 55.94186 10.67038 11641 ft 282 kts 264°
2026-04-27 19:22 55.93524 10.63771 11640 ft 283 kts 237°
2026-04-27 19:23 55.92096 10.61388 11643 ft 284 kts 210°
2026-04-27 19:23 55.90241 10.60409 11641 ft 285 kts 184°
2026-04-27 19:23 55.88307 10.61009 11641 ft 286 kts 157°
2026-04-27 19:23 55.86747 10.63070 11646 ft 273 kts 130°
2026-04-27 19:24 55.85966 10.66010 11712 ft 258 kts 101°
2026-04-27 19:24 55.86076 10.69105 11869 ft 245 kts 75°
2026-04-27 19:24 55.86542 10.71969 11995 ft 241 kts 75°
2026-04-27 19:24 55.86862 10.74902 11992 ft 242 kts 83°
2026-04-27 19:25 55.86882 10.77900 11991 ft 243 kts 96°
2026-04-27 19:25 55.86543 10.80801 11987 ft 243 kts 105°
2026-04-27 19:25 55.86104 10.83713 11995 ft 244 kts 104°
2026-04-27 19:25 55.85678 10.86632 11996 ft 244 kts 104°
2026-04-27 19:26 55.85253 10.89557 11996 ft 244 kts 104°
2026-04-27 19:26 55.84829 10.92483 11997 ft 244 kts 104°
2026-04-27 19:26 55.84405 10.95405 11997 ft 244 kts 104°
2026-04-27 19:26 55.83980 10.98335 11997 ft 244 kts 104°
2026-04-27 19:27 55.83556 11.01259 11997 ft 244 kts 104°
2026-04-27 19:27 55.83131 11.04188 11997 ft 244 kts 104°
2026-04-27 19:27 55.82706 11.07114 11997 ft 244 kts 104°
2026-04-27 19:27 55.82280 11.10042 11997 ft 244 kts 104°
2026-04-27 19:28 55.81860 11.12929 11997 ft 244 kts 104°
2026-04-27 19:28 55.81435 11.15849 11997 ft 244 kts 104°
2026-04-27 19:28 55.81011 11.18772 11997 ft 244 kts 104°
2026-04-27 19:28 55.80587 11.21694 11997 ft 244 kts 104°
2026-04-27 19:29 55.80162 11.24633 11997 ft 244 kts 104°
2026-04-27 19:29 55.79739 11.27556 11997 ft 244 kts 104°
2026-04-27 19:29 55.79315 11.30485 11997 ft 244 kts 104°
2026-04-27 19:29 55.78897 11.33370 11997 ft 244 kts 104°
2026-04-27 19:30 55.78475 11.36293 11997 ft 244 kts 104°
2026-04-27 19:30 55.78052 11.39218 11998 ft 244 kts 104°
2026-04-27 19:30 55.77629 11.42143 11998 ft 245 kts 104°
2026-04-27 19:30 55.77207 11.45068 11997 ft 244 kts 104°
2026-04-27 19:31 55.76784 11.47996 11998 ft 244 kts 104°
2026-04-27 19:31 55.76363 11.50917 11998 ft 244 kts 104°
2026-04-27 19:31 55.76083 11.52858 11997 ft 244 kts 104°
2026-04-27 19:31 55.75520 11.56768 11997 ft 244 kts 104°
2026-04-27 19:32 55.75099 11.59689 11998 ft 244 kts 104°
2026-04-27 19:32 55.74962 11.60638 11998 ft 244 kts 104°
2026-04-27 19:32 55.74399 11.64550 11997 ft 245 kts 104°
2026-04-27 19:33 55.72573 11.70240 11988 ft 243 kts 142°
2026-04-27 19:33 55.71661 11.71463 11995 ft 243 kts 144°
2026-04-27 19:33 55.69847 11.73797 11997 ft 243 kts 144°
2026-04-27 19:33 55.68470 11.75551 11998 ft 244 kts 144°
2026-04-27 19:34 55.67082 11.77315 11775 ft 250 kts 144°
2026-04-27 19:34 55.65687 11.79084 11138 ft 240 kts 144°
2026-04-27 19:34 55.64403 11.80713 10912 ft 216 kts 144°
2026-04-27 19:34 55.63193 11.82249 10319 ft 214 kts 144°
2026-04-27 19:35 55.61982 11.83784 9594 ft 216 kts 144°
2026-04-27 19:35 55.60718 11.85387 8552 ft 233 kts 144°
2026-04-27 19:35 55.59410 11.87044 7869 ft 229 kts 144°
2026-04-27 19:35 55.58124 11.88672 7140 ft 226 kts 144°
2026-04-27 19:36 55.56849 11.90283 6417 ft 224 kts 144°